sat.trackr.live / text

‹ back to catalog

STARLINK-37278

NORAD 68733 · 2026-082F

PAYLOAD ACTIVE UNKNOWN

§ Identity

Operator
Country
US
Launch date
2026-04-15
Launch site
AFWTR
Launch vehicle
Mass (kg)
RCS (m²)

Purposes: comms

External: N2YO · Heavens-Above · Gunter

§ Orbital elements

Epoch: 2026-09-20T01:29:32.664768Z

Period
93.91 min
Inclination
97.2849°
Eccentricity
0.0001742
Mean motion
15.33451427 rev/d
Perigee alt
464.3 km
Apogee alt
466.7 km
Semi-major
6,843.7 km
B*
3.2248e-4
RAAN
125.3007°
Arg perigee
89.3491°
Mean anomaly
270.7951°
Rev number
2,424

§ Raw data

STARLINK-372781 68733U 26082F   26263.06218362  .00010352  00000+0  32248-3 0  99942 68733  97.2849 125.3007 0001742  89.3491 270.7951 15.33451427 24242

JSON: /api/v1/satellites/68733 · /tle

For live sub-satellite position, see the globe view (requires WebGL).

§ Visibility from observer

Set your observer location to see the next 7 days of passes ≥ 10°. The values pass through the URL so the page stays shareable.

No JS? Fill the form by hand. The geolocation button needs JavaScript.